Time,TemperatureF,DewpointF,PressureIn,WindDirection,WindDirectionDegrees,WindSpeedMPH,WindSpeedGustMPH,Humidity,HourlyPrecipIn,Conditions,Clouds,dailyrainin,SoftwareType,DateUTC
2013-01-16 00:01:00,29.4,23.4,30.21,ESE,111,0.0,0.0,78,0.00,,,0.00,Wunderground v.1.15,2013-01-16 05:01:00,
2013-01-16 00:02:00,29.4,23.7,30.21,ESE,115,0.0,0.0,79,0.00,,,0.00,Wunderground v.1.15,2013-01-16 05:02:00,
2013-01-16 00:04:00,29.4,23.4,30.21,SE,125,0.0,0.0,78,0.00,,,0.00,Wunderground v.1.15,2013-01-16 05:04:00,
2013-01-16 00:10:00,29.6,23.6,30.20,SE,128,1.0,1.0,78,0.00,,,0.00,Wunderground v.1.15,2013-01-16 05:10:00,
2013-01-16 00:16:00,29.6,23.6,30.21,ESE,119,1.0,1.0,78,0.00,,,0.00,Wunderground v.1.15,2013-01-16 05:16:00,
2013-01-16 00:21:00,29.6,23.3,30.20,East,101,0.0,1.0,77,0.00,,,0.00,Wunderground v.1.15,2013-01-16 05:21:00,
2013-01-16 00:27:00,29.6,23.3,30.19,East,98,0.0,1.0,77,0.00,,,0.00,Wunderground v.1.15,2013-01-16 05:27:00,
2013-01-16 00:32:00,29.6,23.3,30.20,East,98,0.0,0.0,77,0.00,,,0.00,Wunderground v.1.15,2013-01-16 05:32:00,
2013-01-16 00:38:00,29.6,23.3,30.19,East,98,0.0,0.0,77,0.00,,,0.00,Wunderground v.1.15,2013-01-16 05:38:00,
2013-01-16 00:43:00,29.6,23.3,30.18,ESE,115,0.0,1.0,77,0.00,,,0.00,Wunderground v.1.15,2013-01-16 05:43:00,
2013-01-16 00:48:00,29.7,23.1,30.18,ESE,117,0.0,1.0,76,0.00,,,0.00,Wunderground v.1.15,2013-01-16 05:48:00,
2013-01-16 00:54:00,29.7,23.1,30.17,ESE,110,0.0,2.0,76,0.00,,,0.00,Wunderground v.1.15,2013-01-16 05:54:00,
2013-01-16 01:01:00,29.7,23.1,30.18,SE,126,1.0,1.0,76,0.00,,,0.00,Wunderground v.1.15,2013-01-16 06:01:00,
2013-01-16 01:06:00,29.8,23.5,30.17,ESE,115,1.0,2.0,77,0.00,,,0.00,Wunderground v.1.15,2013-01-16 06:06:00,
2013-01-16 01:12:00,29.8,23.5,30.17,East,91,1.0,1.0,77,0.00,,,0.00,Wunderground v.1.15,2013-01-16 06:12:00,
2013-01-16 01:17:00,29.8,23.5,30.16,East,88,1.0,3.0,77,0.00,,,0.00,Wunderground v.1.15,2013-01-16 06:17:00,
2013-01-16 01:22:00,29.8,23.5,30.17,ESE,122,1.0,1.0,77,0.00,,,0.00,Wunderground v.1.15,2013-01-16 06:22:00,
2013-01-16 01:28:00,29.9,23.6,30.16,East,94,1.0,1.0,77,0.00,,,0.00,Wunderground v.1.15,2013-01-16 06:28:00,
2013-01-16 01:33:00,29.8,23.8,30.16,ESE,119,0.0,2.0,78,0.00,,,0.00,Wunderground v.1.15,2013-01-16 06:33:00,
2013-01-16 01:39:00,29.8,23.8,30.16,ESE,119,0.0,2.0,78,0.00,,,0.00,Wunderground v.1.15,2013-01-16 06:39:00,
2013-01-16 01:44:00,29.8,24.1,30.15,East,97,0.0,1.0,79,0.00,,,0.00,Wunderground v.1.15,2013-01-16 06:44:00,
2013-01-16 01:49:00,29.8,24.1,30.15,East,84,0.0,1.0,79,0.00,,,0.00,Wunderground v.1.15,2013-01-16 06:49:00,
2013-01-16 01:55:00,29.8,24.4,30.15,ESE,104,0.0,1.0,80,0.00,,,0.00,Wunderground v.1.15,2013-01-16 06:55:00,
2013-01-16 02:00:00,29.8,24.1,30.15,ESE,108,1.0,1.0,79,0.00,,,0.00,Wunderground v.1.15,2013-01-16 07:00:00,
2013-01-16 02:06:00,29.9,24.2,30.15,East,85,1.0,3.0,79,0.00,,,0.00,Wunderground v.1.15,2013-01-16 07:06:00,
2013-01-16 02:11:00,29.9,24.2,30.15,East,95,1.0,1.0,79,0.00,,,0.00,Wunderground v.1.15,2013-01-16 07:11:00,
2013-01-16 02:16:00,30.0,24.3,30.14,ESE,119,1.0,2.0,79,0.00,,,0.00,Wunderground v.1.15,2013-01-16 07:16:00,
2013-01-16 02:22:00,30.0,24.3,30.14,East,92,1.0,1.0,79,0.00,,,0.00,Wunderground v.1.15,2013-01-16 07:22:00,
2013-01-16 02:27:00,30.0,24.3,30.14,ESE,122,1.0,2.0,79,0.00,,,0.00,Wunderground v.1.15,2013-01-16 07:27:00,
2013-01-16 02:32:00,30.1,23.8,30.14,SSE,158,1.0,3.0,77,0.00,,,0.00,Wunderground v.1.15,2013-01-16 07:32:00,
2013-01-16 02:38:00,30.1,23.8,30.14,ESE,119,1.0,3.0,77,0.00,,,0.00,Wunderground v.1.15,2013-01-16 07:38:00,
2013-01-16 02:44:00,30.1,23.8,30.13,East,100,1.0,1.0,77,0.00,,,0.00,Wunderground v.1.15,2013-01-16 07:44:00,
2013-01-16 02:50:00,30.1,24.1,30.14,East,91,1.0,1.0,78,0.00,,,0.00,Wunderground v.1.15,2013-01-16 07:50:00,
2013-01-16 02:55:00,30.1,23.8,30.14,ESE,108,0.0,1.0,77,0.00,,,0.00,Wunderground v.1.15,2013-01-16 07:55:00,
2013-01-16 03:01:00,30.1,23.8,30.13,ESE,120,0.0,1.0,77,0.00,,,0.00,Wunderground v.1.15,2013-01-16 08:01:00,
2013-01-16 03:06:00,30.1,23.8,30.12,ESE,104,0.0,1.0,77,0.00,,,0.00,Wunderground v.1.15,2013-01-16 08:06:00,
2013-01-16 03:11:00,30.0,24.0,30.12,East,91,0.0,0.0,78,0.00,,,0.00,Wunderground v.1.15,2013-01-16 08:11:00,
2013-01-16 03:17:00,30.0,24.0,30.14,ESE,122,0.0,1.0,78,0.00,,,0.00,Wunderground v.1.15,2013-01-16 08:17:00,
2013-01-16 03:22:00,30.1,24.1,30.12,ESE,119,0.0,1.0,78,0.00,,,0.00,Wunderground v.1.15,2013-01-16 08:22:00,
2013-01-16 03:28:00,30.1,23.8,30.11,ESE,119,1.0,3.0,77,0.00,,,0.00,Wunderground v.1.15,2013-01-16 08:28:00,
2013-01-16 03:34:00,30.1,23.8,30.11,East,99,2.0,2.0,77,0.00,,,0.00,Wunderground v.1.15,2013-01-16 08:34:00,
2013-01-16 03:40:00,30.1,23.8,30.11,ESE,115,0.0,1.0,77,0.00,,,0.00,Wunderground v.1.15,2013-01-16 08:40:00,
2013-01-16 03:46:00,30.1,23.8,30.10,ENE,74,1.0,2.0,77,0.00,,,0.00,Wunderground v.1.15,2013-01-16 08:46:00,
2013-01-16 03:52:00,30.1,24.1,30.10,SE,131,1.0,1.0,78,0.00,,,0.00,Wunderground v.1.15,2013-01-16 08:52:00,
2013-01-16 03:58:00,30.1,24.1,30.09,East,79,0.0,1.0,78,0.00,,,0.00,Wunderground v.1.15,2013-01-16 08:58:00,
2013-01-16 04:04:00,30.0,24.3,30.10,ESE,108,0.0,1.0,79,0.00,,,0.00,Wunderground v.1.15,2013-01-16 09:04:00,
2013-01-16 04:09:00,30.0,24.3,30.08,SE,125,0.0,1.0,79,0.00,,,0.00,Wunderground v.1.15,2013-01-16 09:09:00,
2013-01-16 04:15:00,30.0,24.3,30.09,ESE,108,0.0,0.0,79,0.00,,,0.00,Wunderground v.1.15,2013-01-16 09:15:00,
2013-01-16 04:20:00,30.0,24.3,30.09,ESE,108,0.0,0.0,79,0.00,,,0.00,Wunderground v.1.15,2013-01-16 09:20:00,
2013-01-16 04:25:00,29.9,24.2,30.08,East,87,0.0,0.0,79,0.00,,,0.00,Wunderground v.1.15,2013-01-16 09:25:00,
2013-01-16 04:31:00,29.9,24.2,30.07,East,89,0.0,1.0,79,0.00,,,0.00,Wunderground v.1.15,2013-01-16 09:31:00,
2013-01-16 04:36:00,29.9,24.2,30.07,SE,146,0.0,1.0,79,0.00,,,0.00,Wunderground v.1.15,2013-01-16 09:36:00,
2013-01-16 04:41:00,29.9,24.2,30.06,ESE,104,0.0,0.0,79,0.00,,,0.00,Wunderground v.1.15,2013-01-16 09:41:00,
2013-01-16 04:47:00,29.9,24.2,30.07,ESE,104,0.0,0.0,79,0.00,,,0.00,Wunderground v.1.15,2013-01-16 09:47:00,
2013-01-16 04:53:00,29.9,24.2,30.06,East,97,0.0,1.0,79,0.00,,,0.00,Wunderground v.1.15,2013-01-16 09:53:00,
2013-01-16 04:58:00,30.0,24.3,30.06,East,92,0.0,1.0,79,0.00,,,0.00,Wunderground v.1.15,2013-01-16 09:58:00,
2013-01-16 05:03:00,29.8,24.1,30.05,East,80,0.0,1.0,79,0.00,,,0.00,Wunderground v.1.15,2013-01-16 10:03:00,
2013-01-16 05:09:00,29.9,24.2,30.05,ESE,111,0.0,1.0,79,0.00,,,0.00,Wunderground v.1.15,2013-01-16 10:09:00,
2013-01-16 05:15:00,30.0,24.3,30.05,East,84,0.0,1.0,79,0.00,,,0.00,Wunderground v.1.15,2013-01-16 10:15:00,
2013-01-16 05:20:00,29.9,24.2,30.06,ESE,109,0.0,0.0,79,0.00,,,0.00,Wunderground v.1.15,2013-01-16 10:20:00,
2013-01-16 05:25:00,29.9,24.2,30.06,East,99,0.0,0.0,79,0.00,,,0.00,Wunderground v.1.15,2013-01-16 10:25:00,
2013-01-16 05:31:00,29.9,24.2,30.05,East,98,0.0,0.0,79,0.00,,,0.00,Wunderground v.1.15,2013-01-16 10:31:00,
2013-01-16 05:37:00,29.9,24.2,30.04,ESE,119,0.0,1.0,79,0.00,,,0.00,Wunderground v.1.15,2013-01-16 10:37:00,
2013-01-16 05:43:00,29.8,24.4,30.04,East,95,1.0,2.0,80,0.00,,,0.00,Wunderground v.1.15,2013-01-16 10:43:00,
2013-01-16 05:49:00,29.7,24.6,30.05,SE,127,1.0,2.0,81,0.00,,,0.00,Wunderground v.1.15,2013-01-16 10:49:00,
2013-01-16 05:55:00,29.6,24.8,30.06,ESE,121,1.0,1.0,82,0.00,,,0.00,Wunderground v.1.15,2013-01-16 10:55:00,
2013-01-16 06:01:00,29.5,24.7,30.05,ESE,122,1.0,2.0,82,0.00,,,0.00,Wunderground v.1.15,2013-01-16 11:01:00,
2013-01-16 06:06:00,29.4,24.9,30.05,East,83,1.0,2.0,83,0.00,,,0.00,Wunderground v.1.15,2013-01-16 11:06:00,
2013-01-16 06:11:00,29.3,25.1,30.06,East,92,0.0,0.0,84,0.00,,,0.00,Wunderground v.1.15,2013-01-16 11:11:00,
2013-01-16 06:16:00,29.2,25.3,30.04,East,89,0.0,1.0,85,0.00,,,0.00,Wunderground v.1.15,2013-01-16 11:16:00,
2013-01-16 06:22:00,29.1,25.2,30.03,SE,139,1.0,2.0,85,0.00,,,0.00,Wunderground v.1.15,2013-01-16 11:22:00,
2013-01-16 06:27:00,29.1,25.4,30.04,East,86,1.0,2.0,86,0.00,,,0.00,Wunderground v.1.15,2013-01-16 11:27:00,
2013-01-16 06:33:00,29.1,25.4,30.05,East,97,0.0,1.0,86,0.00,,,0.00,Wunderground v.1.15,2013-01-16 11:33:00,
2013-01-16 06:38:00,29.0,25.3,30.04,ESE,118,0.0,1.0,86,0.00,,,0.00,Wunderground v.1.15,2013-01-16 11:38:00,
2013-01-16 06:44:00,29.1,25.4,30.05,ESE,110,0.0,0.0,86,0.00,,,0.00,Wunderground v.1.15,2013-01-16 11:44:00,
2013-01-16 06:49:00,29.1,25.7,30.04,ESE,114,0.0,0.0,87,0.00,,,0.00,Wunderground v.1.15,2013-01-16 11:49:00,
2013-01-16 06:54:00,29.1,25.7,30.04,East,82,0.0,1.0,87,0.00,,,0.00,Wunderground v.1.15,2013-01-16 11:54:00,
2013-01-16 07:01:00,29.1,25.7,30.04,ESE,110,0.0,0.0,87,0.00,,,0.00,Wunderground v.1.15,2013-01-16 12:01:00,
2013-01-16 07:06:00,29.1,25.7,30.03,East,96,0.0,1.0,87,0.00,,,0.00,Wunderground v.1.15,2013-01-16 12:06:00,
2013-01-16 07:12:00,29.1,25.7,30.02,East,85,0.0,0.0,87,0.00,,,0.00,Wunderground v.1.15,2013-01-16 12:12:00,
2013-01-16 07:17:00,29.1,26.0,30.03,North,354,0.0,0.0,88,0.00,,,0.00,Wunderground v.1.15,2013-01-16 12:17:00,
2013-01-16 07:22:00,29.1,26.0,30.03,ENE,65,0.0,0.0,88,0.00,,,0.00,Wunderground v.1.15,2013-01-16 12:22:00,
2013-01-16 07:28:00,29.1,26.0,30.04,ENE,65,0.0,0.0,88,0.00,,,0.00,Wunderground v.1.15,2013-01-16 12:28:00,
2013-01-16 07:33:00,29.2,26.1,30.04,ENE,65,0.0,0.0,88,0.00,,,0.00,Wunderground v.1.15,2013-01-16 12:33:00,
2013-01-16 07:38:00,29.2,26.1,30.03,East,96,0.0,1.0,88,0.00,,,0.00,Wunderground v.1.15,2013-01-16 12:38:00,
2013-01-16 07:44:00,29.3,26.2,30.01,ESE,122,1.0,2.0,88,0.00,,,0.00,Wunderground v.1.15,2013-01-16 12:44:00,
2013-01-16 07:49:00,29.3,26.2,30.01,East,82,0.0,2.0,88,0.00,,,0.00,Wunderground v.1.15,2013-01-16 12:49:00,
2013-01-16 07:55:00,29.4,26.3,30.02,ENE,72,0.0,1.0,88,0.00,,,0.00,Wunderground v.1.15,2013-01-16 12:55:00,
2013-01-16 08:00:00,29.4,26.0,30.02,ESE,114,0.0,0.0,87,0.00,,,0.00,Wunderground v.1.15,2013-01-16 13:00:00,
2013-01-16 08:06:00,29.5,26.1,30.02,ENE,71,0.0,0.0,87,0.00,,,0.00,Wunderground v.1.15,2013-01-16 13:06:00,
2013-01-16 08:12:00,29.5,26.1,30.02,ESE,119,0.0,0.0,87,0.00,,,0.00,Wunderground v.1.15,2013-01-16 13:12:00,
2013-01-16 08:17:00,29.5,26.1,30.01,ESE,104,0.0,0.0,87,0.00,,,0.00,Wunderground v.1.15,2013-01-16 13:17:00,
2013-01-16 08:23:00,29.5,26.1,30.02,ENE,75,0.0,1.0,87,0.00,,,0.00,Wunderground v.1.15,2013-01-16 13:23:00,
2013-01-16 08:28:00,29.5,26.1,30.02,East,89,0.0,1.0,87,0.00,,,0.00,Wunderground v.1.15,2013-01-16 13:28:00,
2013-01-16 08:33:00,29.4,26.0,30.02,ESE,120,0.0,0.0,87,0.00,,,0.00,Wunderground v.1.15,2013-01-16 13:33:00,
2013-01-16 08:39:00,29.4,26.0,30.01,ENE,67,0.0,1.0,87,0.00,,,0.00,Wunderground v.1.15,2013-01-16 13:39:00,
2013-01-16 08:45:00,29.5,26.1,30.02,ENE,71,0.0,0.0,87,0.00,,,0.00,Wunderground v.1.15,2013-01-16 13:45:00,
2013-01-16 08:51:00,29.5,26.1,30.02,East,93,0.0,1.0,87,0.00,,,0.00,Wunderground v.1.15,2013-01-16 13:51:00,
2013-01-16 08:57:00,29.4,26.0,30.02,East,83,0.0,1.0,87,0.00,,,0.00,Wunderground v.1.15,2013-01-16 13:57:00,
2013-01-16 09:03:00,29.4,26.3,30.03,East,79,0.0,0.0,88,0.00,,,0.00,Wunderground v.1.15,2013-01-16 14:03:00,
2013-01-16 09:09:00,29.4,26.3,30.02,East,91,0.0,0.0,88,0.00,,,0.00,Wunderground v.1.15,2013-01-16 14:09:00,
2013-01-16 09:14:00,29.4,26.6,30.02,East,79,0.0,0.0,89,0.00,,,0.00,Wunderground v.1.15,2013-01-16 14:14:00,
2013-01-16 09:19:00,29.4,26.6,30.01,ESE,107,0.0,1.0,89,0.00,,,0.00,Wunderground v.1.15,2013-01-16 14:19:00,
2013-01-16 09:25:00,29.2,26.6,30.00,ESE,105,1.0,2.0,90,0.00,,,0.00,Wunderground v.1.15,2013-01-16 14:25:00,
2013-01-16 09:30:00,29.1,26.5,30.00,East,84,2.0,3.0,90,0.00,,,0.00,Wunderground v.1.15,2013-01-16 14:30:00,
2013-01-16 09:36:00,29.1,26.8,30.00,East,90,1.0,3.0,91,0.00,,,0.00,Wunderground v.1.15,2013-01-16 14:36:00,
2013-01-16 09:41:00,29.1,26.8,29.99,East,97,1.0,1.0,91,0.00,,,0.00,Wunderground v.1.15,2013-01-16 14:41:00,
2013-01-16 09:47:00,29.1,27.1,29.99,ESE,102,1.0,2.0,92,0.00,,,0.00,Wunderground v.1.15,2013-01-16 14:47:00,
2013-01-16 09:53:00,29.2,27.2,29.99,ENE,70,1.0,2.0,92,0.00,,,0.00,Wunderground v.1.15,2013-01-16 14:53:00,
2013-01-16 09:58:00,29.2,27.2,29.99,ESE,110,0.0,2.0,92,0.00,,,0.00,Wunderground v.1.15,2013-01-16 14:58:00,
2013-01-16 10:04:00,29.2,27.2,29.98,ENE,64,1.0,1.0,92,0.00,,,0.00,Wunderground v.1.15,2013-01-16 15:04:00,
2013-01-16 10:09:00,29.3,27.3,29.98,ESE,106,1.0,3.0,92,0.00,,,0.00,Wunderground v.1.15,2013-01-16 15:09:00,
2013-01-16 10:14:00,29.2,27.2,29.98,SE,133,1.0,5.0,92,0.00,,,0.00,Wunderground v.1.15,2013-01-16 15:14:00,
2013-01-16 10:20:00,29.2,27.2,29.98,East,100,2.0,2.0,92,0.00,,,0.00,Wunderground v.1.15,2013-01-16 15:20:00,
2013-01-16 10:25:00,29.3,27.5,29.97,ESE,121,2.0,3.0,93,0.00,,,0.00,Wunderground v.1.15,2013-01-16 15:25:00,
2013-01-16 10:31:00,29.4,27.6,29.97,East,96,1.0,1.0,93,0.00,,,0.00,Wunderground v.1.15,2013-01-16 15:31:00,
2013-01-16 10:36:00,29.5,27.7,29.96,ESE,115,1.0,4.0,93,0.00,,,0.00,Wunderground v.1.15,2013-01-16 15:36:00,
2013-01-16 10:42:00,29.5,27.7,29.95,ESE,102,2.0,2.0,93,0.00,,,0.00,Wunderground v.1.15,2013-01-16 15:42:00,
2013-01-16 10:48:00,29.6,27.8,29.95,East,87,2.0,3.0,93,0.00,,,0.00,Wunderground v.1.15,2013-01-16 15:48:00,
2013-01-16 10:53:00,29.7,27.9,29.95,East,81,1.0,2.0,93,0.00,,,0.00,Wunderground v.1.15,2013-01-16 15:53:00,
2013-01-16 10:59:00,29.9,28.1,29.93,ESE,119,1.0,2.0,93,0.00,,,0.00,Wunderground v.1.15,2013-01-16 15:59:00,
2013-01-16 11:04:00,29.9,28.1,29.93,SE,129,2.0,3.0,93,0.00,,,0.00,Wunderground v.1.15,2013-01-16 16:04:00,
2013-01-16 11:09:00,30.0,28.2,29.93,ESE,117,2.0,3.0,93,0.00,,,0.00,Wunderground v.1.15,2013-01-16 16:09:00,
2013-01-16 11:14:00,30.0,28.0,29.92,East,101,3.0,5.0,92,0.00,,,0.00,Wunderground v.1.15,2013-01-16 16:14:00,
2013-01-16 11:20:00,30.0,28.0,29.92,SE,125,3.0,3.0,92,0.00,,,0.00,Wunderground v.1.15,2013-01-16 16:20:00,
2013-01-16 11:25:00,30.1,28.1,29.91,East,86,2.0,5.0,92,0.00,,,0.00,Wunderground v.1.15,2013-01-16 16:25:00,
2013-01-16 11:30:00,30.2,28.2,29.90,ESE,103,1.0,3.0,92,0.00,,,0.00,Wunderground v.1.15,2013-01-16 16:30:00,
2013-01-16 11:36:00,30.2,28.2,29.89,ESE,107,1.0,3.0,92,0.00,,,0.00,Wunderground v.1.15,2013-01-16 16:36:00,
2013-01-16 11:41:00,30.3,28.3,29.89,East,99,2.0,3.0,92,0.00,,,0.00,Wunderground v.1.15,2013-01-16 16:41:00,
2013-01-16 11:46:00,30.4,28.4,29.90,ESE,113,1.0,3.0,92,0.00,,,0.00,Wunderground v.1.15,2013-01-16 16:46:00,
2013-01-16 11:51:00,30.5,28.2,29.89,ESE,102,1.0,2.0,91,0.00,,,0.00,Wunderground v.1.15,2013-01-16 16:51:00,
2013-01-16 11:57:00,30.6,28.6,29.86,ESE,110,1.0,2.0,92,0.00,,,0.00,Wunderground v.1.15,2013-01-16 16:57:00,
2013-01-16 12:03:00,30.8,28.5,29.86,SE,139,1.0,2.0,91,0.00,,,0.00,Wunderground v.1.15,2013-01-16 17:03:00,
2013-01-16 12:08:00,31.0,28.7,29.85,ESE,108,2.0,3.0,91,0.00,,,0.00,Wunderground v.1.15,2013-01-16 17:08:00,
2013-01-16 12:14:00,31.2,28.6,29.84,East,91,2.0,4.0,90,0.00,,,0.00,Wunderground v.1.15,2013-01-16 17:14:00,
2013-01-16 12:19:00,31.3,28.7,29.84,ESE,111,2.0,4.0,90,0.00,,,0.00,Wunderground v.1.15,2013-01-16 17:19:00,
2013-01-16 12:25:00,31.6,28.7,29.85,ESE,108,2.0,4.0,89,0.00,,,0.00,Wunderground v.1.15,2013-01-16 17:25:00,
2013-01-16 12:31:00,31.7,28.6,29.85,ESE,116,2.0,3.0,88,0.00,,,0.00,Wunderground v.1.15,2013-01-16 17:31:00,
2013-01-16 12:36:00,31.8,28.7,29.85,East,101,2.0,3.0,88,0.00,,,0.00,Wunderground v.1.15,2013-01-16 17:36:00,
2013-01-16 12:42:00,32.0,28.6,29.84,SE,129,1.0,1.0,87,0.00,,,0.00,Wunderground v.1.15,2013-01-16 17:42:00,
2013-01-16 12:48:00,32.2,28.8,29.84,East,86,0.0,1.0,87,0.00,,,0.00,Wunderground v.1.15,2013-01-16 17:48:00,
2013-01-16 12:53:00,32.4,29.0,29.84,ESE,122,0.0,1.0,87,0.00,,,0.00,Wunderground v.1.15,2013-01-16 17:53:00,
2013-01-16 12:58:00,32.5,28.8,29.83,SE,132,1.0,2.0,86,0.00,,,0.00,Wunderground v.1.15,2013-01-16 17:58:00,
2013-01-16 13:03:00,32.6,28.6,29.83,East,91,1.0,2.0,85,0.00,,,0.00,Wunderground v.1.15,2013-01-16 18:03:00,
2013-01-16 13:09:00,32.8,28.8,29.83,SE,134,1.0,2.0,85,0.00,,,0.00,Wunderground v.1.15,2013-01-16 18:09:00,
2013-01-16 13:15:00,33.0,28.7,29.84,SSE,152,1.0,1.0,84,0.00,,,0.00,Wunderground v.1.15,2013-01-16 18:15:00,
2013-01-16 13:21:00,33.1,28.5,29.83,ESE,115,0.0,1.0,83,0.00,,,0.00,Wunderground v.1.15,2013-01-16 18:21:00,
2013-01-16 13:26:00,33.2,28.6,29.83,SE,131,1.0,3.0,83,0.00,,,0.00,Wunderground v.1.15,2013-01-16 18:26:00,
2013-01-16 13:31:00,33.4,28.5,29.83,ESE,108,1.0,2.0,82,0.00,,,0.00,Wunderground v.1.15,2013-01-16 18:31:00,
2013-01-16 13:37:00,33.6,28.7,29.83,South,177,1.0,2.0,82,0.00,,,0.00,Wunderground v.1.15,2013-01-16 18:37:00,
2013-01-16 13:42:00,33.7,28.5,29.81,SW,226,1.0,3.0,81,0.00,,,0.00,Wunderground v.1.15,2013-01-16 18:42:00,
2013-01-16 13:47:00,33.8,28.6,29.81,SE,144,1.0,3.0,81,0.00,,,0.00,Wunderground v.1.15,2013-01-16 18:47:00,
2013-01-16 13:53:00,34.1,28.9,29.81,SSE,158,0.0,0.0,81,0.00,,,0.00,Wunderground v.1.15,2013-01-16 18:53:00,
2013-01-16 13:59:00,34.2,29.0,29.81,WNW,296,1.0,2.0,81,0.00,,,0.00,Wunderground v.1.15,2013-01-16 18:59:00,
2013-01-16 14:04:00,34.4,29.2,29.81,East,89,1.0,1.0,81,0.00,,,0.00,Wunderground v.1.15,2013-01-16 19:04:00,
2013-01-16 14:09:00,34.6,29.1,29.82,ESE,117,1.0,3.0,80,0.00,,,0.00,Wunderground v.1.15,2013-01-16 19:09:00,
2013-01-16 14:14:00,34.7,29.2,29.82,West,259,1.0,2.0,80,0.00,,,0.00,Wunderground v.1.15,2013-01-16 19:14:00,
2013-01-16 14:20:00,34.7,28.9,29.82,West,262,1.0,1.0,79,0.00,,,0.00,Wunderground v.1.15,2013-01-16 19:20:00,
2013-01-16 14:26:00,34.8,29.0,29.82,WNW,294,2.0,3.0,79,0.00,,,0.00,Wunderground v.1.15,2013-01-16 19:26:00,
2013-01-16 14:31:00,34.8,29.3,29.81,SW,222,1.0,1.0,80,0.00,,,0.00,Wunderground v.1.15,2013-01-16 19:31:00,
2013-01-16 14:36:00,34.9,29.4,29.81,SSE,155,0.0,1.0,80,0.00,,,0.00,Wunderground v.1.15,2013-01-16 19:36:00,
2013-01-16 14:42:00,34.9,29.0,29.81,WSW,246,1.0,3.0,79,0.00,,,0.00,Wunderground v.1.15,2013-01-16 19:42:00,
2013-01-16 14:47:00,35.0,29.1,29.81,SW,235,2.0,4.0,79,0.00,,,0.00,Wunderground v.1.15,2013-01-16 19:47:00,
2013-01-16 14:52:00,35.0,29.5,29.81,West,281,2.0,5.0,80,0.00,,,0.00,Wunderground v.1.15,2013-01-16 19:52:00,
2013-01-16 14:58:00,35.0,29.5,29.82,ESE,119,2.0,5.0,80,0.00,,,0.00,Wunderground v.1.15,2013-01-16 19:58:00,
2013-01-16 15:03:00,35.1,29.2,29.81,WSW,256,2.0,4.0,79,0.00,,,0.00,Wunderground v.1.15,2013-01-16 20:03:00,
2013-01-16 15:09:00,35.1,29.6,29.81,ESE,115,2.0,4.0,80,0.00,,,0.00,Wunderground v.1.15,2013-01-16 20:09:00,
2013-01-16 15:14:00,35.1,29.2,29.81,ESE,110,2.0,7.0,79,0.00,,,0.00,Wunderground v.1.15,2013-01-16 20:14:00,
2013-01-16 15:19:00,35.1,29.6,29.81,WSW,238,2.0,7.0,80,0.00,,,0.00,Wunderground v.1.15,2013-01-16 20:19:00,
2013-01-16 15:25:00,35.2,29.6,29.82,WSW,256,3.0,7.0,80,0.00,,,0.00,Wunderground v.1.15,2013-01-16 20:25:00,
2013-01-16 15:31:00,35.3,29.7,29.81,NW,307,2.0,3.0,80,0.00,,,0.00,Wunderground v.1.15,2013-01-16 20:31:00,
2013-01-16 15:37:00,35.4,29.8,29.81,SW,228,2.0,5.0,80,0.00,,,0.00,Wunderground v.1.15,2013-01-16 20:37:00,
2013-01-16 15:42:00,35.4,29.8,29.80,WSW,238,2.0,2.0,80,0.00,,,0.00,Wunderground v.1.15,2013-01-16 20:42:00,
2013-01-16 15:47:00,35.5,29.9,29.81,WNW,290,1.0,4.0,80,0.00,,,0.00,Wunderground v.1.15,2013-01-16 20:47:00,
2013-01-16 15:53:00,35.4,29.5,29.80,ESE,122,1.0,5.0,79,0.00,,,0.00,Wunderground v.1.15,2013-01-16 20:53:00,
2013-01-16 15:58:00,35.4,29.5,29.79,SSE,165,2.0,5.0,79,0.00,,,0.00,Wunderground v.1.15,2013-01-16 20:58:00,
2013-01-16 16:03:00,35.5,29.9,29.79,SSE,150,1.0,2.0,80,0.00,,,0.00,Wunderground v.1.15,2013-01-16 21:03:00,
2013-01-16 16:08:00,35.7,29.8,29.79,South,190,1.0,3.0,79,0.00,,,0.00,Wunderground v.1.15,2013-01-16 21:08:00,
2013-01-16 16:14:00,35.5,29.6,29.79,SSE,164,2.0,2.0,79,0.00,,,0.00,Wunderground v.1.15,2013-01-16 21:14:00,
2013-01-16 16:20:00,35.3,29.4,29.79,SE,131,1.0,2.0,79,0.00,,,0.00,Wunderground v.1.15,2013-01-16 21:20:00,
2013-01-16 16:26:00,35.1,29.6,29.79,WNW,284,1.0,2.0,80,0.00,,,0.00,Wunderground v.1.15,2013-01-16 21:26:00,
2013-01-16 16:31:00,35.0,29.5,29.80,ESE,118,1.0,2.0,80,0.00,,,0.00,Wunderground v.1.15,2013-01-16 21:31:00,
2013-01-16 16:37:00,34.9,29.4,29.80,SW,225,2.0,4.0,80,0.00,,,0.00,Wunderground v.1.15,2013-01-16 21:37:00,
2013-01-16 16:43:00,34.7,29.5,29.80,ESE,114,1.0,2.0,81,0.00,,,0.00,Wunderground v.1.15,2013-01-16 21:43:00,
2013-01-16 16:48:00,34.6,29.4,29.81,West,264,0.0,2.0,81,0.00,,,0.00,Wunderground v.1.15,2013-01-16 21:48:00,
2013-01-16 16:53:00,34.4,29.5,29.81,West,262,0.0,1.0,82,0.00,,,0.00,Wunderground v.1.15,2013-01-16 21:53:00,
2013-01-16 16:58:00,34.3,29.4,29.80,South,187,0.0,1.0,82,0.00,,,0.00,Wunderground v.1.15,2013-01-16 21:58:00,
2013-01-16 17:03:00,34.1,29.2,29.80,West,262,0.0,3.0,82,0.00,,,0.00,Wunderground v.1.15,2013-01-16 22:03:00,
2013-01-16 17:09:00,34.0,29.1,29.81,WSW,253,0.0,3.0,82,0.00,,,0.00,Wunderground v.1.15,2013-01-16 22:09:00,
2013-01-16 17:14:00,34.1,29.2,29.81,WSW,257,1.0,1.0,82,0.00,,,0.00,Wunderground v.1.15,2013-01-16 22:14:00,
2013-01-16 17:20:00,33.9,29.0,29.81,SSE,153,1.0,1.0,82,0.00,,,0.00,Wunderground v.1.15,2013-01-16 22:20:00,
2013-01-16 17:25:00,33.7,29.1,29.80,SSW,208,0.0,1.0,83,0.00,,,0.00,Wunderground v.1.15,2013-01-16 22:25:00,
2013-01-16 17:30:00,33.5,28.9,29.80,SE,126,0.0,0.0,83,0.00,,,0.00,Wunderground v.1.15,2013-01-16 22:30:00,
2013-01-16 17:35:00,33.2,28.6,29.80,ESE,115,0.0,2.0,83,0.00,,,0.00,Wunderground v.1.15,2013-01-16 22:35:00,
2013-01-16 17:41:00,33.0,28.7,29.80,SSW,212,0.0,1.0,84,0.00,,,0.00,Wunderground v.1.15,2013-01-16 22:41:00,
2013-01-16 17:46:00,33.1,28.8,29.81,NW,312,0.0,1.0,84,0.00,,,0.00,Wunderground v.1.15,2013-01-16 22:46:00,
2013-01-16 17:52:00,33.2,28.9,29.80,SE,131,1.0,1.0,84,0.00,,,0.00,Wunderground v.1.15,2013-01-16 22:52:00,
2013-01-16 17:57:00,33.3,29.0,29.80,South,183,1.0,4.0,84,0.00,,,0.00,Wunderground v.1.15,2013-01-16 22:57:00,
2013-01-16 18:03:00,33.3,29.0,29.80,ESE,120,2.0,3.0,84,0.00,,,0.00,Wunderground v.1.15,2013-01-16 23:03:00,
2013-01-16 18:08:00,33.4,29.1,29.80,SE,135,2.0,3.0,84,0.00,,,0.00,Wunderground v.1.15,2013-01-16 23:08:00,
2013-01-16 18:13:00,33.5,29.2,29.80,SSE,153,3.0,4.0,84,0.00,,,0.00,Wunderground v.1.15,2013-01-16 23:13:00,
2013-01-16 18:19:00,33.5,29.2,29.80,SSE,163,4.0,7.0,84,0.00,,,0.00,Wunderground v.1.15,2013-01-16 23:19:00,
2013-01-16 18:24:00,33.6,29.3,29.80,ESE,111,5.0,5.0,84,0.00,,,0.00,Wunderground v.1.15,2013-01-16 23:24:00,
2013-01-16 18:30:00,33.7,29.4,29.81,SSW,211,4.0,7.0,84,0.00,,,0.00,Wunderground v.1.15,2013-01-16 23:30:00,
2013-01-16 18:35:00,33.7,29.4,29.81,SE,142,4.0,7.0,84,0.00,,,0.00,Wunderground v.1.15,2013-01-16 23:35:00,
2013-01-16 18:40:00,33.7,29.4,29.81,SSW,195,3.0,3.0,84,0.00,,,0.00,Wunderground v.1.15,2013-01-16 23:40:00,
2013-01-16 18:46:00,33.7,29.4,29.81,SSE,156,4.0,6.0,84,0.00,,,0.00,Wunderground v.1.15,2013-01-16 23:46:00,
2013-01-16 18:51:00,33.7,29.4,29.82,ESE,122,4.0,5.0,84,0.00,,,0.00,Wunderground v.1.15,2013-01-16 23:51:00,
2013-01-16 18:57:00,33.6,29.3,29.82,ESE,120,3.0,5.0,84,0.00,,,0.00,Wunderground v.1.15,2013-01-16 23:57:00,
2013-01-16 19:02:00,33.6,29.3,29.82,ESE,115,3.0,3.0,84,0.00,,,0.00,Wunderground v.1.15,2013-01-17 00:02:00,
2013-01-16 19:08:00,33.6,29.3,29.82,ESE,120,3.0,5.0,84,0.00,,,0.00,Wunderground v.1.15,2013-01-17 00:08:00,
2013-01-16 19:13:00,33.6,29.3,29.82,SE,133,3.0,4.0,84,0.00,,,0.00,Wunderground v.1.15,2013-01-17 00:13:00,
2013-01-16 19:18:00,33.6,29.3,29.82,SE,129,2.0,5.0,84,0.00,,,0.00,Wunderground v.1.15,2013-01-17 00:18:00,
2013-01-16 19:24:00,33.6,29.3,29.82,WNW,287,2.0,5.0,84,0.00,,,0.00,Wunderground v.1.15,2013-01-17 00:24:00,
2013-01-16 19:29:00,33.6,29.3,29.82,ENE,78,2.0,5.0,84,0.00,,,0.00,Wunderground v.1.15,2013-01-17 00:29:00,
2013-01-16 19:35:00,33.6,29.3,29.82,SE,136,2.0,3.0,84,0.00,,,0.00,Wunderground v.1.15,2013-01-17 00:35:00,
2013-01-16 19:40:00,33.5,29.2,29.82,ESE,119,1.0,3.0,84,0.00,,,0.00,Wunderground v.1.15,2013-01-17 00:40:00,
2013-01-16 19:45:00,33.3,29.0,29.81,ESE,114,1.0,2.0,84,0.00,,,0.00,Wunderground v.1.15,2013-01-17 00:45:00,
2013-01-16 19:51:00,33.5,29.2,29.82,ESE,116,2.0,2.0,84,0.00,,,0.00,Wunderground v.1.15,2013-01-17 00:51:00,
2013-01-16 19:56:00,33.6,29.3,29.82,SW,226,2.0,2.0,84,0.00,,,0.00,Wunderground v.1.15,2013-01-17 00:56:00,
2013-01-16 20:01:00,33.7,29.4,29.82,SW,232,1.0,1.0,84,0.00,,,0.00,Wunderground v.1.15,2013-01-17 01:01:00,
2013-01-16 20:07:00,33.9,29.6,29.82,SE,134,2.0,5.0,84,0.00,,,0.00,Wunderground v.1.15,2013-01-17 01:07:00,
2013-01-16 20:12:00,34.0,29.4,29.82,ESE,122,3.0,3.0,83,0.00,,,0.00,Wunderground v.1.15,2013-01-17 01:12:00,
2013-01-16 20:18:00,34.0,29.4,29.82,WSW,243,2.0,6.0,83,0.00,,,0.00,Wunderground v.1.15,2013-01-17 01:18:00,
2013-01-16 20:24:00,34.1,29.5,29.82,ESE,106,2.0,3.0,83,0.00,,,0.00,Wunderground v.1.15,2013-01-17 01:24:00,
2013-01-16 20:29:00,34.2,29.6,29.82,SW,232,3.0,3.0,83,0.00,,,0.00,Wunderground v.1.15,2013-01-17 01:29:00,
2013-01-16 20:35:00,34.3,29.7,29.82,SE,137,3.0,5.0,83,0.00,,,0.00,Wunderground v.1.15,2013-01-17 01:35:00,
2013-01-16 20:40:00,34.4,29.5,29.82,SW,224,3.0,3.0,82,0.00,,,0.00,Wunderground v.1.15,2013-01-17 01:40:00,
2013-01-16 20:46:00,34.6,29.7,29.82,South,180,4.0,6.0,82,0.00,,,0.00,Wunderground v.1.15,2013-01-17 01:46:00,
2013-01-16 20:52:00,34.7,29.8,29.82,ESE,115,4.0,5.0,82,0.00,,,0.00,Wunderground v.1.15,2013-01-17 01:52:00,
2013-01-16 20:57:00,34.7,29.8,29.82,SSW,204,4.0,8.0,82,0.00,,,0.00,Wunderground v.1.15,2013-01-17 01:57:00,
2013-01-16 21:03:00,34.6,29.7,29.82,ESE,123,3.0,8.0,82,0.00,,,0.00,Wunderground v.1.15,2013-01-17 02:03:00,
2013-01-16 21:08:00,34.7,29.5,29.82,ESE,110,5.0,8.0,81,0.00,,,0.00,Wunderground v.1.15,2013-01-17 02:08:00,
2013-01-16 21:14:00,34.9,29.4,29.82,WSW,238,5.0,8.0,80,0.00,,,0.00,Wunderground v.1.15,2013-01-17 02:14:00,
2013-01-16 21:19:00,34.9,29.4,29.82,ESE,117,5.0,8.0,80,0.00,,,0.00,Wunderground v.1.15,2013-01-17 02:19:00,
2013-01-16 21:25:00,34.8,29.0,29.82,SW,236,4.0,6.0,79,0.00,,,0.00,Wunderground v.1.15,2013-01-17 02:25:00,
2013-01-16 21:31:00,34.9,29.0,29.82,SSE,160,5.0,8.0,79,0.00,,,0.00,Wunderground v.1.15,2013-01-17 02:31:00,
2013-01-16 21:36:00,35.0,28.8,29.83,West,262,5.0,8.0,78,0.00,,,0.00,Wunderground v.1.15,2013-01-17 02:36:00,
2013-01-16 21:42:00,34.9,28.7,29.83,SE,129,3.0,4.0,78,0.00,,,0.00,Wunderground v.1.15,2013-01-17 02:42:00,
2013-01-16 21:48:00,34.8,28.6,29.83,SE,129,4.0,7.0,78,0.00,,,0.00,Wunderground v.1.15,2013-01-17 02:48:00,
2013-01-16 21:53:00,34.9,28.4,29.83,SE,127,4.0,4.0,77,0.00,,,0.00,Wunderground v.1.15,2013-01-17 02:53:00,
2013-01-16 21:58:00,35.0,28.2,29.83,SSW,200,4.0,7.0,76,0.00,,,0.00,Wunderground v.1.15,2013-01-17 02:58:00,
2013-01-16 22:04:00,35.1,28.0,29.83,WNW,284,4.0,12.0,75,0.00,,,0.00,Wunderground v.1.15,2013-01-17 03:04:00,
2013-01-16 22:09:00,35.1,28.0,29.83,SE,131,4.0,12.0,75,0.00,,,0.00,Wunderground v.1.15,2013-01-17 03:09:00,
2013-01-16 22:14:00,35.2,27.7,29.83,ESE,117,3.0,5.0,74,0.00,,,0.00,Wunderground v.1.15,2013-01-17 03:14:00,
2013-01-16 22:20:00,35.2,27.7,29.83,WSW,246,4.0,4.0,74,0.00,,,0.00,Wunderground v.1.15,2013-01-17 03:20:00,
2013-01-16 22:25:00,35.3,27.5,29.83,WNW,290,5.0,6.0,73,0.00,,,0.00,Wunderground v.1.15,2013-01-17 03:25:00,
2013-01-16 22:31:00,35.3,27.5,29.83,South,181,4.0,4.0,73,0.00,,,0.00,Wunderground v.1.15,2013-01-17 03:31:00,
2013-01-16 22:36:00,35.3,27.5,29.83,ENE,63,4.0,7.0,73,0.00,,,0.00,Wunderground v.1.15,2013-01-17 03:36:00,
2013-01-16 22:41:00,35.3,27.5,29.83,West,277,5.0,6.0,73,0.00,,,0.00,Wunderground v.1.15,2013-01-17 03:41:00,
2013-01-16 22:47:00,35.1,27.6,29.83,WNW,294,4.0,7.0,74,0.00,,,0.00,Wunderground v.1.15,2013-01-17 03:47:00,
2013-01-16 22:52:00,34.9,27.8,29.83,WNW,297,4.0,5.0,75,0.00,,,0.00,Wunderground v.1.15,2013-01-17 03:52:00,
2013-01-16 22:58:00,34.9,27.8,29.83,ESE,102,4.0,5.0,75,0.00,,,0.00,Wunderground v.1.15,2013-01-17 03:58:00,
2013-01-16 23:03:00,34.8,28.0,29.83,WNW,296,3.0,6.0,76,0.00,,,0.00,Wunderground v.1.15,2013-01-17 04:03:00,
2013-01-16 23:08:00,34.7,27.9,29.83,West,269,2.0,6.0,76,0.00,,,0.00,Wunderground v.1.15,2013-01-17 04:08:00,
2013-01-16 23:14:00,34.8,27.7,29.83,WNW,295,3.0,3.0,75,0.00,,,0.00,Wunderground v.1.15,2013-01-17 04:14:00,
2013-01-16 23:19:00,34.8,27.7,29.83,WNW,288,2.0,3.0,75,0.00,,,0.00,Wunderground v.1.15,2013-01-17 04:19:00,
2013-01-16 23:25:00,34.9,27.8,29.84,West,260,2.0,5.0,75,0.00,,,0.00,Wunderground v.1.15,2013-01-17 04:25:00,
2013-01-16 23:30:00,35.0,27.9,29.84,WSW,258,3.0,3.0,75,0.00,,,0.00,Wunderground v.1.15,2013-01-17 04:30:00,
2013-01-16 23:36:00,35.0,27.5,29.84,West,259,3.0,3.0,74,0.00,,,0.00,Wunderground v.1.15,2013-01-17 04:36:00,
2013-01-16 23:41:00,35.1,27.6,29.85,WNW,284,3.0,6.0,74,0.00,,,0.00,Wunderground v.1.15,2013-01-17 04:41:00,
2013-01-16 23:46:00,35.2,27.4,29.85,SW,233,3.0,7.0,73,0.00,,,0.00,Wunderground v.1.15,2013-01-17 04:46:00,
2013-01-16 23:51:00,35.3,27.2,29.85,SSE,155,3.0,3.0,72,0.00,,,0.00,Wunderground v.1.15,2013-01-17 04:51:00,
2013-01-16 23:57:00,35.3,26.8,29.85,WNW,284,3.0,7.0,71,0.00,,,0.00,Wunderground v.1.15,2013-01-17 04:57:00,